This is the latest recevied weather packets stored in our database for station/object KB2SKP. If no packets are shown the sender has not sent any weather packets the latest 10 day(s).
| Time | Temp. | Humidity | Pressure | Rain* | Wind** | Luminosity | Snow |
|---|---|---|---|---|---|---|---|
| 1778107789 | 21.11° C | 80% | 1005.1 hPa | 0 mm | - | 28 W/m² | - |
| 1778107487 | 21.11° C | 79% | 1005 hPa | 0 mm | - | 32 W/m² | - |
| 1778107183 | 21.11° C | 80% | 1004.7 hPa | 0 mm | - | 32 W/m² | - |
| 1778106879 | 21.11° C | 79% | 1004.9 hPa | 0 mm | - | 34 W/m² | - |
| 1778106576 | 21.11° C | 80% | 1005.3 hPa | 0 mm | - | 40 W/m² | - |
| 1778106272 | 21.11° C | 79% | 1005.3 hPa | 0 mm | - | 41 W/m² | - |
| 1778105969 | 21.11° C | 80% | 1004.9 hPa | 0 mm | - | 46 W/m² | - |
| 1778105666 | 20.56° C | 80% | 1004.9 hPa | 0 mm | - | 52 W/m² | - |
| 1778105364 | 20.56° C | 80% | 1005.1 hPa | 0 mm | - | 47 W/m² | - |
| 1778105060 | 21.11° C | 80% | 1005.1 hPa | 0 mm | - | 46 W/m² | - |
| 1778104756 | 20.56° C | 80% | 1005 hPa | 0 mm | - | 61 W/m² | - |
| 1778104453 | 20.56° C | 80% | 1005.1 hPa | 0 mm | - | 56 W/m² | - |
| 1778104148 | 20.56° C | 80% | 1004.9 hPa | 0 mm | - | 58 W/m² | - |
| 1778103846 | 20.56° C | 80% | 1005.2 hPa | 0 mm | - | 72 W/m² | - |
| 1778103543 | 20.56° C | 80% | 1005.3 hPa | 0 mm | - | 64 W/m² | - |
| 1778103241 | 20.56° C | 80% | 1005.4 hPa | 0 mm | - | 64 W/m² | - |
| 1778102938 | 20.56° C | 80% | 1005.4 hPa | 0 mm | - | 72 W/m² | - |
| 1778102634 | 20.56° C | 80% | 1005.5 hPa | 0 mm | - | 81 W/m² | - |
| 1778102328 | 20.56° C | 79% | 1005.3 hPa | 0 mm | - | 84 W/m² | - |
| 1778102025 | 20.56° C | 79% | 1005.4 hPa | 0 mm | - | 88 W/m² | - |
| 1778101722 | 20.56° C | 80% | 1005.2 hPa | 0 mm | - | 85 W/m² | - |
| 1778101419 | 20.56° C | 78% | 1005.3 hPa | 0 mm | - | 99 W/m² | - |
| 1778101117 | 20.56° C | 79% | 1005.2 hPa | 0 mm | - | 101 W/m² | - |
| 1778100812 | 20.56° C | 80% | 1005 hPa | 0 mm | - | 109 W/m² | - |
| 1778100509 | 20° C | 81% | 1005.5 hPa | 0 mm | - | 170 W/m² | - |
* Rain latest hour (hover to see other rain measurements)
** Current wind speed in m/s (hover to see current wind gust speed)